Location: Unspecified
(45.3712°N, 0.6436°E)
Time: 19:29:25
(UTC+02:00)

ISS - Visible Passes

Search period start: 26 April 2018 00:00
Search period end: 06 May 2018 00:00
Orbit: 402 x 407 km, 51.6° (Epoch: 27 April)

Date Brightness Start Highest point End Pass type
(mag) Time Alt. Az. Time Alt. Az. Time Alt. Az.
02 May -1.7 06:01:40 10° S 06:04:10 21° SE 06:06:42 10° E visible
03 May -1.2 05:10:51 10° SSE 05:12:05 12° SE 05:13:20 10° ESE visible
04 May -3.1 05:52:43 10° SW 05:55:47 44° SE 05:58:55 10° ENE visible
05 May -2.2 05:02:24 20° S 05:03:35 25° SE 05:06:19 10° E visible
